Regional Weather Roundup
Issued by NWS

Home | Current Version | Previous Version | Text Only | Print | Product List | Glossary Off
Versions: 1 2 3 4 5 6 7 8 9 10 11 12 13 14 15 16 17 18 19 20 21 22 23 24 25 26 27 28 29 30 31 32 33 34 35 36 37 38 39 40 41 42 43 44 45 46 47 48 49 50

000
ASUS45 KTFX 031610
RWRMT
MONTANA REGIONAL WEATHER ROUNDUP
NATIONAL WEATHER SERVICE GREAT FALLS MT
1000 AM MDT TUE MAY 03 2016

NOTE: "FAIR" INDICATES FEW OR NO CLOUDS BELOW 12000 FEET WITH NO
SIGNIFICANT WEATHER AND/OR OBSTRUCTIONS TO VISIBILITY.

MTZ001>007-043-031700-
WEST OF THE DIVIDE

CITY           SKY/WX    TMP DP  RH WIND       PRES   REMARKS
KALISPELL      SUNNY     60  39  45 NE6       30.16S
MISSOULA       SUNNY     54  39  57 VRB3      30.21S
BUTTE          SUNNY     53  28  38 CALM      30.25R
MULLAN PASS    SUNNY     59  34  39 CALM      30.23S
$$

MTZ008-052>055-031700-
SOUTHWEST MONTANA

CITY           SKY/WX    TMP DP  RH WIND       PRES   REMARKS
BOZEMAN        SUNNY     56  32  40 W5        30.22S
DILLON         SUNNY     55  29  36 SW9       30.23S
ENNIS          SUNNY     55  30  38 S5        30.29S
$$

MTZ009-010-012-014-046-048-049-054-031700-
EAST SLOPES AND CENTRAL MONTANA

CITY           SKY/WX    TMP DP  RH WIND       PRES   REMARKS
CUT BANK       SUNNY     63  39  41 W3        30.12R
GREAT FALLS    SUNNY     64  37  36 S10       30.13R
MALMSTROM AFB  SUNNY     61  41  47 W3        30.13S
HELENA         SUNNY     56  33  42 N3        30.19F
$$

MTZ011-013-016-021-045-047-050-051-031700-
NORTH CENTRAL MONTANA

CITY           SKY/WX    TMP DP  RH WIND       PRES   REMARKS
HAVRE          SUNNY     62  43  49 SW7       30.11S
LEWISTOWN      SUNNY     67  36  31 MISG      30.15S
N BAR RANCH      N/A     64  32  29 E8        30.19S
$$

MTZ017>020-022>027-061-062-031700-
NORTHEAST MONTANA

CITY           SKY/WX    TMP DP  RH WIND       PRES   REMARKS
GLASGOW        SUNNY     65  44  46 W6        30.09S
JORDAN           N/A     66  47  50 CALM      30.10S
SIDNEY         SUNNY     64  45  48 SE5       30.08F
WOLF POINT     SUNNY     66  43  43 SW5       30.08F
$$

MTZ028>42-056>058-031700-
SOUTHCENTRAL AND SOUTHEAST MONTANA

CITY           SKY/WX    TMP DP  RH WIND       PRES   REMARKS
BAKER          SUNNY     65  42  43 NW9       30.11S
BILLINGS       MOSUNNY   57  38  48 SW7       30.17S
LIVINGSTON     SUNNY     63  28  26 W17       30.19S
MILES CITY     SUNNY     65  43  44 W8        30.11S
$$

REGIONAL REPORTS...DAKOTAS

CITY           SKY/WX    TMP DP  RH WIND       PRES   REMARKS
WILLISTON      SUNNY     66  42  41 E3        30.06S
MINOT          SUNNY     70  28  21 N15G23    30.01R
DICKINSON      SUNNY     67  31  26 N13G20    30.04F
BISMARCK       SUNNY     68  39  34 NW15      29.99F
GRAND FORKS    MOSUNNY   64  34  32 N24G32    29.87R
FARGO          MOSUNNY   70  40  33 NW17G25   29.84F
BUFFALO SD       N/A     68  37  32 N14       30.03S
RAPID CITY     SUNNY     64  40  41 N14       30.11S
$$

REGIONAL REPORTS...WYOMING/IDAHO/WASHINGTON

CITY           SKY/WX    TMP DP  RH WIND       PRES   REMARKS
GILLETTE       SUNNY     62  39  42 NW14      30.17S
SHERIDAN       SUNNY     65  36  34 CALM      30.18S
BUFFALO WY     SUNNY     62  33  33 N5        30.22R
CODY           SUNNY     61  32  33 CALM      30.21S
YELLOWSTONE LA   N/A     36  23  59 E3        30.38R
IDAHO FALLS    SUNNY     56  31  38 CALM      30.27S
SALMON         SUNNY     52  30  43 CALM      30.23F
BOISE          SUNNY     63  34  33 CALM      30.16R
SPOKANE        MOSUNNY   61  42  49 E6        30.09R
$$

REGIONAL REPORTS...ALBERTA

CITY           SKY/WX    TMP DP  RH WIND       PRES   REMARKS
EDMONTON       MOSUNNY   68  39  34 W6        29.95S
CALGARY        MOSUNNY   72  34  25 NW10G17   30.05S
LETHBRIDGE     SUNNY     72  36  26 SW14      30.05S
MEDICINE HAT   MOSUNNY   70  46  43 S6        30.05F
WATERTON GATE    N/A     68  34  28 SW15G22     N/A
CARDSTON         N/A     72  32  23 W12         N/A
ONEFOUR          N/A     63  41  45 SE8         N/A
$$

REGIONAL REPORTS...SASKATCHEWAN

CITY           SKY/WX    TMP DP  RH WIND       PRES   REMARKS
SWIFT CURRENT  SUNNY     70  41  35 VRB2      30.08R
REGINA         MOSUNNY   70  37  30 SE2       30.06F
SASKATOON      MOSUNNY   72  43  35 S6        30.05S
VAL MARIE        N/A     68  37  32 E1          N/A
ROCKGLEN         N/A     70  36  28 N7          N/A
ASSINIBOIA       N/A     75  39  27 S10         N/A
$$



USA.gov is the U.S. government's official web portal to all federal, state and local government web resources and services.